Qasigiannguit

KL  EN  DA
ASIAQ
Weather Now GREENLAND SURVEY
Updated [WGT/WGST] Temperature [°C] Wind [m/s] Air pressure [hPa] Relative humidity [%] Precipitation [mm]
Present Wind chill Speed Max
21.01 19:00-11,7-19,85,4 ⇑7,4996650,0
21.01 18:00-11,7-20,76,6 ⇑9,4995650,0
21.01 17:00-11,6-20,56,5 ⇑9,1995670,0
21.01 16:00-12,0-21,06,5 ⇑10,0995700,0
21.01 15:00-12,2-21,46,7 ⇑9,3994700,0
21.01 14:00-11,5-20,36,5 ⇑9,0994720,0
21.01 13:00-11,5-19,65,5 ⇑7,0995690,0
21.01 12:00-11,3-20,46,9 ⇑10,8994790,0
21.01 11:00-10,7-21,19,9 ⇑13,3994700,0
21.01 10:00-10,2-20,810,8 ⇗14,1993620,0
21.01 09:00-10,1-20,810,9 ⇑14,0993590,0
21.01 08:00-10,3-21,411,8 ⇑15,6992640,0
21.01 07:00-10,1-21,312,1 ⇑16,4991690,0
21.01 06:00-10,0-21,212,2 ⇑16,1990670,0
21.01 05:00-10,3-21,612,4 ⇑16,6990660,0
21.01 04:00-9,9-20,811,4 ⇑15,1989700,0
21.01 03:00-9,5-19,910,7 ⇗15,6988740,0
21.01 02:00-9,1-19,09,7 ⇑12,9987740,0
21.01 01:00-8,8-18,08,7 ⇗12,5987770,0
21.01 00:00-8,5-17,27,7 ⇗11,1986730,0
20.01 23:00-8,5-16,97,1 ⇗11,3985770,0
20.01 22:00-7,9-15,76,3 ⇗9,4985790,0
20.01 21:00-7,8-15,56,3 ⇗9,4984760,0
20.01 20:00-7,5-14,75,7 ⇗9,3985770,0
20.01 19:00-6,9-12,84,2 ⇗6,4985850,1
Position: (68.823667,-51.173861)

[Back]